Flag for United Arab Emirates Weather past 2 weeks in Dubai, Dubai, United Arab Emirates

Now
100 °F

Clear.


Feels Like: 106 °F
Forecast: 94 / 105 °F
Wind: 6 mph from East

Location: Dubai International Airport

Current Time: Jul 31, 2014 at 10:24:31 AM

Latest Report: Jul 31, 2014 at 10:00 AM


Visibility: 6 mi

Pressure: 29.50 "Hg

Humidity: 35%

Dew point: 68 °F

Location of DubaiLocation

Historic Weather in Dubai — Graph

°F

Dubai temperature yesterday

Maximum temperature yesterday: 102 °F (at 2:00 PM)
Minimum temperature yesterday: 86 °F (at 6:00 AM)
Average temperature yesterday: 95 °F

Past Weeks' High & Low Weather Summary

 TemperatureHumidityPressure
High115 °F (Jul 26, 1:00 PM)84% (Jul 19, 1:00 AM)29.56 "Hg (Jul 19, 1:00 AM)
Low86 °F (Jul 30, 6:00 AM)11% (Jul 26, 1:00 PM)29.33 "Hg (Jul 18, 5:00 PM)
Average97 °F56%29.43 "Hg
* Reported Jul 16 9:00 AM — Jul 31 9:00 AM, Dubai, Weather by CustomWeather, © 2014

Note: Actual official high and low records may vary slightly from our data, if they occured in-between our weather recording intervals... More about our weather records

Advertising

Dubai weather history for previous 24 hours

 ConditionsComfort  
Time TempWeatherWind HumidityBarometerVisibility
9:00 AM
Jul 31
97 °FClear.7 mph44%29.50 "Hg6 mi
8:00 AM93 °FClear.7 mph49%29.50 "Hg6 mi
7:00 AM90 °FClear.7 mph59%29.47 "Hg6 mi
6:00 AM91 °FClear.7 mph44%29.47 "Hg5 mi
5:00 AM91 °FPassing clouds.8 mph41%29.47 "HgN/A
4:00 AM95 °FPassing clouds.7 mph34%29.45 "HgN/A
3:00 AM95 °FPassing clouds.6 mph34%29.45 "HgN/A
2:00 AM95 °FPassing clouds.5 mph34%29.45 "HgN/A
1:00 AM95 °FPassing clouds.5 mph34%29.45 "HgN/A
12:00 AM95 °FClear.8 mph36%29.45 "Hg10 mi
11:00 PM
Jul 30
97 °FClear.7 mph37%29.47 "Hg10 mi
10:00 PM99 °FPassing clouds.5 mph29%29.47 "HgN/A
9:00 PM97 °FPassing clouds.5 mph34%29.45 "HgN/A
8:00 PM97 °FPassing clouds.6 mph39%29.45 "HgN/A
7:00 PM99 °FPassing clouds.7 mph37%29.45 "HgN/A
6:00 PM100 °FSunny.9 mph31%29.45 "Hg10 mi
5:00 PM102 °FPassing clouds.9 mph27%29.45 "HgN/A
4:00 PM102 °FPassing clouds.13 mph33%29.45 "HgN/A
3:00 PM102 °FSunny.14 mph26%29.45 "Hg10 mi
2:00 PM102 °FPassing clouds.12 mph37%29.45 "HgN/A
1:00 PM100 °FPassing clouds.12 mph37%29.45 "HgN/A
12:00 PM100 °FPassing clouds.10 mph42%29.47 "HgN/A
11:00 AM99 °FPassing clouds.8 mph44%29.47 "HgN/A
10:00 AM95 °FPassing clouds.8 mph53%29.47 "HgN/A
Weather by CustomWeather, © 2014

See weather overviewHow to use our weather pages